Regional Weather Roundup
Issued by NWS Lake Charles, LA

Home | Current Version | Previous Version | Text Only | Print | Product List | Glossary On
Versions: 1 2 3 4 5 6 7 8 9 10 11 12 13 14 15 16 17 18 19 20 21 22 23 24 25 26 27 28 29 30 31 32 33 34 35 36 37 38 39 40 41 42 43 44 45 46 47 48 49 50
151
ASUS44 KLCH 210410
RWRLCH
REGIONAL WEATHER ROUNDUP
NATIONAL WEATHER SERVICE LAKE CHARLES LA
1100 PM CDT FRI OCT 20 2017

Note: "fair" indicates few or no clouds below 12,000 feet with no
significant weather and/or obstructions to visibility.


ACROSS SOUTHEAST TEXAS

CITY           SKY/WX    TMP DP  RH WIND       PRES   REMARKS
BEAUMONT       MOCLDY    73  70  90 E6        29.98R
BEAUMONT CITY  CLOUDY    73  68  84 E8        30.00S
ORANGE         PTCLDY    71  70  98 E6        30.01R
JASPER         CLEAR     68  66  94 CALM      30.03S
$$

ACROSS CENTRAL LOUISIANA

CITY           SKY/WX    TMP DP  RH WIND       PRES   REMARKS
LEESVILLE      PTCLDY    69  66  89 E5        30.01R
FULLERTON      FAIR      68  66  93 VRB3      30.00S
ALEXANDRIA INT MOCLDY    72  67  84 E10       30.01F
ESLER FIELD    PTCLDY    68  67  96 E6        30.03F
DERIDDER       FAIR      68  67  96 CALM      30.03R
OAKDALE        CLOUDY    70  67  92 CALM      30.03R
OPELOUSAS        N/A     72  69  91 SE8       30.04S
$$

ACROSS SOUTHWEST AND SOUTH CENTRAL LOUISIANA

CITY           SKY/WX    TMP DP  RH WIND       PRES   REMARKS
SULPHUR        CLOUDY    71  68  90 E8        30.01S
LAKE CHARLES   MOCLDY    71  68  90 E8        30.00S
CHENNAULT INT    N/A     68  67  97 E7        30.01S
CAMERON PHI    MOCLDY    73  70  88 E10       29.98F
DEQUINCY       FAIR      67  66  95 E3        30.01S
JENNINGS       FAIR      71  69  93 E7        30.02S
LAFAYETTE      MOCLDY    74  71  91 E5        30.04R
NEW IBERIA     CLOUDY    74  69  85 E7        30.03R
ABBEVILLE      FAIR      73  73 100 E3        30.03R
PATTERSON      CLOUDY    74  72  93 E10       30.03F
SALT POINT       N/A     75  72  90 SE8       30.00F
$$

SELECTED SITES ACROSS THE REGION

CITY           SKY/WX    TMP DP  RH WIND       PRES   REMARKS
HOUSTON BUSH   MOCLDY    73  73 100 E6        29.98R
HOUSTON HOBBY  PTCLDY    76  72  87 E3        29.97R
GALVESTON      PTCLDY    80  75  84 SE16      29.97R
COLLEGE STAT   PTCLDY    73  70  90 SE7       29.96F
CONROE         CLOUDY    72  72 100 E6        29.99S
HUNTSVILLE     CLOUDY    73  68  84 E7        29.99S
LUFKIN         CLOUDY    67  66  97 SE5       30.01R
SHREVEPORT     CLEAR     66  64  93 SE7       30.01S
MONROE         CLOUDY    69  62  78 CALM      30.06S
NATCHEZ MS     MOCLDY    70  67  90 S5        30.09R
BATON ROUGE    CLOUDY    72  68  87 E10       30.05F
N.O. INTL ARPT MOCLDY    75  73  93 E10       30.06F
SLIDELL        MOCLDY    69  66  90 NE3       30.08F
$$

MARINE REPORTS

STATION/POSITION TIME  SKY/WX   TEMP    WIND        PRES    VSBY
                                AIR SEA DIR/SP/G
                 (UTC)          (F)     (DEG/KT/KT) (MB)    (MI)
BUOY 30 S HIGH I 0350            80 79  150/ 16/ 19 1014.4R
WVE H/P(F/S)=  5/ 7

SEA RIM ST PARK  0400            77     140/  8/ 10 1015.8R
PORT ARTHUR      0342            73 76  100/  5/  9 1015.6R
SABINE PASS N    0342            78 77  120/ 10/ 12 1016.7R
TEXAS POINT      NOT AVBL
CALCASIEU PASS   0342            73 76  110/ 10/ 13 1014.3R
LK CHARLES BEACH 0342            69 79              1015.5R
MARSH ISLAND     0300            76                   N/A
FRESH WATER LOCK 0342            75 74  100/  9/ 14 1016.2R
AMERADA PASS     0342            74 77   80/  9/ 11 1016.6F
$$




USA.gov is the U.S. government's official web portal to all federal, state and local government web resources and services.